Flag for Germany Weather past 2 weeks in Filderstadt, Baden-Württemberg, Germany

Now
61 °F

Light rain. Overcast.


Feels Like: 61 °F
Forecast: 52 / 72 °F
Wind: 2 mph from South

Location: Stuttgart-Echterdingen

Current Time: Aug 29, 2014 at 10:28:32 AM

Latest Report: Aug 29, 2014 at 10:00 AM


Visibility: 13 mi

Pressure: 30.07 "Hg

Humidity: 91%

Dew point: 58 °F

Location of FilderstadtLocation

Historic Weather in Filderstadt — Graph

°F

Filderstadt temperature yesterday

Maximum temperature yesterday: 74 °F (at 4:00 PM)
Minimum temperature yesterday: 51 °F (at 6:00 AM)
Average temperature yesterday: 62 °F

Past Weeks' High & Low Weather Summary

 TemperatureHumidityPressure
High74 °F (Aug 28, 4:00 PM)100% (Aug 28, 8:00 AM)30.18 "Hg (Aug 28, 8:00 AM)
Low45 °F (Aug 25, 6:00 AM)43% (Aug 22, 1:00 PM)29.69 "Hg (Aug 26, 6:00 AM)
Average58 °F76%29.99 "Hg
* Reported Aug 14 9:00 AM — Aug 29 9:00 AM, Filderstadt, Weather by CustomWeather, © 2014

Note: Actual official high and low records may vary slightly from our data, if they occured in-between our weather recording intervals... More about our weather records

Advertising

Filderstadt weather history for previous 24 hours

 ConditionsComfort  
Time TempWeatherWind HumidityBarometerVisibility
9:00 AM
Aug 29
60 °FLight rain. Overcast.1 mph95%30.06 "Hg37 mi
8:00 AM58 °FLight rain. Overcast.1 mph98%30.05 "Hg37 mi
7:00 AM57 °FOvercast.1 mph98%30.05 "Hg37 mi
6:00 AM55 °FFog.1 mph97%30.05 "Hg37 mi
5:00 AM56 °FPassing clouds.1 mph97%30.05 "Hg37 mi
4:00 AM57 °FPassing clouds.1 mph97%30.04 "Hg37 mi
3:00 AM58 °FPassing clouds.1 mph96%30.04 "Hg37 mi
2:00 AM59 °FPassing clouds.1 mph92%30.05 "Hg37 mi
1:00 AM61 °FPassing clouds.1 mph89%30.04 "Hg37 mi
12:00 AM61 °FPassing clouds.1 mph88%30.05 "Hg37 mi
10:00 PM
Aug 28
66 °FOvercast.1 mph78%30.03 "Hg37 mi
9:00 PM67 °FOvercast.1 mph74%30.02 "Hg37 mi
8:00 PM70 °FOvercast.2 mph68%29.99 "Hg43 mi
7:00 PM71 °FOvercast.2 mph63%30.00 "Hg43 mi
6:00 PM73 °FOvercast.2 mph55%29.99 "Hg43 mi
4:00 PM74 °FPartly sunny.2 mph50%30.00 "Hg40 mi
3:00 PM72 °FPartly sunny.2 mph55%30.02 "Hg40 mi
2:00 PM72 °FScattered clouds.2 mph55%30.02 "Hg37 mi
1:00 PM69 °FScattered clouds.2 mph62%30.04 "Hg31 mi
12:00 PM68 °FScattered clouds.2 mph68%30.05 "Hg25 mi
10:00 AM59 °FPartly sunny.1 mph98%30.08 "Hg12 mi
Weather by CustomWeather, © 2014

See weather overviewHow to use our weather pages